Weather History for KLNS - October, 2012

Change the Weather History Date:

Friday, October 12, 2012

  Actual Average Record
Temperature  
Mean Temperature 47 °F -  
Max Temperature 57 °F 64 °F 79 °F (1990)
Min Temperature 37 °F 44 °F 32 °F (1996)
Degree Days  
Heating Degree Days 18    
Moisture  
Dew Point 32 °F    
Average Humidity 64    
Maximum Humidity 89    
Minimum Humidity 34    
Precipitation  
Precipitation 0.00 in - - ()
Sea Level Pressure  
Sea Level Pressure 30.24 in    
Wind  
Wind Speed 4 mph (NNW)    
Max Wind Speed 18 mph    
Max Gust Speed 25 mph    
Visibility 10 miles    
Events      
Averages and records for this station are not official NWS values.
T = Trace of Precipitation, MM = Missing Value Source: NWS Daily Summary

Daily Weather History Graph

Daily Weather History Graph

Search for Another Location

Airport or City:

Trip Planner

Search our weather history database for the weather conditions in past years. The results will help you decide how hot, cold, wet, or windy it might be!

Date:

Astronomy

Oct. 12, 2012 Rise Set
Actual Time 7:13 AM EDT 6:29 PM EDT
Civil Twilight 6:45 AM EDT 6:56 PM EDT
Nautical Twilight 6:14 AM EDT 7:27 PM EDT
Astronomical Twilight 5:42 AM EDT 7:59 PM EDT
Moon 3:53 AM EDT (10/12) 4:37 PM EDT (10/12)
Length of Visible Light 12h 10m
Length of Day
11h 16m
Waning Crescent, 11% of the Moon is Illuminated
Oct 12
Waning Crescent
Oct 15
New
Oct 21
First Quarter
Oct 29
Full
Nov 6
Last Quarter

Hourly Weather History & Observations

Time (EDT) Temp. Windchill Dew Point Humidity Pressure Visibility Wind Dir Wind Speed Gust Speed Precip Events Conditions
12:53 AM 43.0 °F - 35.1 °F 74% 30.17 in 10.0 mi Calm Calm - N/A   Clear
1:53 AM 39.9 °F - 35.1 °F 83% 30.16 in 10.0 mi Calm Calm - N/A   Clear
2:53 AM 39.0 °F - 35.1 °F 86% 30.14 in 10.0 mi Calm Calm - N/A   Clear
3:53 AM 37.9 °F - 34.0 °F 86% 30.13 in 10.0 mi Calm Calm - N/A   Clear
4:53 AM 37.0 °F - 34.0 °F 89% 30.13 in 9.0 mi Calm Calm - N/A   Clear
5:53 AM 37.9 °F - 34.0 °F 86% 30.12 in 10.0 mi Calm Calm - N/A   Clear
6:53 AM 37.9 °F - 35.1 °F 89% 30.13 in 10.0 mi Calm Calm - N/A   Clear
7:53 AM 39.9 °F - 37.0 °F 89% 30.13 in 7.0 mi Calm Calm - N/A   Clear
8:53 AM 46.0 °F 43.1 °F 39.9 °F 79% 30.16 in 3.0 mi WNW 5.8 mph - N/A   Haze
10:53 AM 57.0 °F - 37.0 °F 47% 30.19 in 10.0 mi NW 17.3 mph 23.0 mph N/A   Clear
12:53 PM 55.0 °F - 37.9 °F 53% 30.24 in 10.0 mi NNW 13.8 mph 20.7 mph N/A   Mostly Cloudy
1:53 PM 55.0 °F - 33.1 °F 43% 30.24 in 10.0 mi NNW 18.4 mph 24.2 mph N/A   Clear
2:53 PM 55.9 °F - 30.9 °F 39% 30.25 in 10.0 mi NW 17.3 mph 23.0 mph N/A   Scattered Clouds
3:53 PM 55.9 °F - 28.0 °F 34% 30.26 in 10.0 mi NW 18.4 mph 25.3 mph N/A   Partly Cloudy
4:53 PM 55.0 °F - 27.0 °F 34% 30.27 in 10.0 mi NNW 12.7 mph - N/A   Partly Cloudy
6:53 PM 48.0 °F - 28.0 °F 46% 30.33 in 10.0 mi North 8.1 mph - N/A   Clear
7:53 PM 46.0 °F 41.9 °F 26.1 °F 46% 30.37 in 10.0 mi North 8.1 mph - N/A   Clear
8:53 PM 44.1 °F 40.1 °F 26.1 °F 49% 30.39 in 10.0 mi North 6.9 mph - N/A   Clear
10:53 PM 39.0 °F 35.7 °F 26.1 °F 60% 30.43 in 10.0 mi North 4.6 mph - N/A   Clear
11:53 PM 39.0 °F 34.8 °F 26.1 °F 60% 30.47 in 10.0 mi NNE 5.8 mph - N/A   Clear